This is the latest recevied weather packets stored in our database for station/object HI8S-13. If no packets are shown the sender has not sent any weather packets the latest 1 day(s).
| Time | Temp. | Humidity | Pressure | Rain* | Wind** | Luminosity | Snow |
|---|---|---|---|---|---|---|---|
| 1778023715 | 27.78° C | 74% | 1016.1 hPa | 0 mm | 0.45 m/s, 179° | - | - |
| 1778023410 | 27.78° C | 75% | 1016 hPa | 0 mm | 0.45 m/s, 159° | - | - |
| 1778023107 | 27.78° C | 75% | 1016 hPa | 0 mm | 0.89 m/s, 134° | - | - |
| 1778022809 | 27.78° C | 73% | 1016 hPa | 0 mm | 0.45 m/s, 188° | - | - |
| 1778022514 | 28.33° C | 73% | 1016 hPa | 0 mm | 0.89 m/s, 159° | - | - |
| 1778022209 | 28.33° C | 73% | 1016 hPa | 0 mm | 0.89 m/s, 213° | - | - |
| 1778021909 | 28.33° C | 73% | 1016 hPa | 0 mm | 0.45 m/s, 138° | - | - |
| 1778021613 | 28.33° C | 72% | 1016 hPa | 0 mm | 0.45 m/s, 181° | - | - |
| 1778021309 | 28.33° C | 72% | 1016 hPa | 0 mm | 0.89 m/s, 180° | - | - |
| 1778021015 | 28.89° C | 72% | 1015.9 hPa | 0 mm | 0.89 m/s, 125° | - | - |
| 1778020709 | 28.89° C | 71% | 1015.9 hPa | 0 mm | 0.45 m/s, 165° | - | - |
| 1778020413 | 28.89° C | 71% | 1015.8 hPa | 0 mm | 1.79 m/s, 163° | - | - |
| 1778020108 | 28.89° C | 70% | 1015.8 hPa | 0 mm | 1.34 m/s, 167° | - | - |
| 1778019813 | 28.89° C | 70% | 1015.8 hPa | 0 mm | 1.34 m/s, 167° | - | - |
| 1778019507 | 29.44° C | 69% | 1015.8 hPa | 0 mm | 1.79 m/s, 158° | - | - |
| 1778019212 | 29.44° C | 68% | 1015.7 hPa | 0 mm | 1.34 m/s, 169° | - | - |
| 1778018909 | 30° C | 68% | 1015.6 hPa | 0 mm | 1.34 m/s, 161° | - | - |
| 1778018607 | 30° C | 68% | 1015.6 hPa | 0 mm | 1.79 m/s, 220° | - | - |
| 1778018309 | 30° C | 68% | 1015.6 hPa | 0 mm | 1.34 m/s, 168° | - | - |
| 1778018011 | 30° C | 68% | 1015.7 hPa | 0 mm | 1.79 m/s, 187° | - | - |
| 1778017708 | 30° C | 67% | 1015.6 hPa | 0 mm | 2.24 m/s, 212° | - | - |
| 1778017407 | 30° C | 68% | 1015.6 hPa | 0 mm | 1.79 m/s, 219° | - | - |
| 1778017109 | 30° C | 67% | 1015.6 hPa | 0 mm | 1.34 m/s, 159° | - | - |
| 1778016813 | 30° C | 67% | 1015.6 hPa | 0 mm | 1.79 m/s, 203° | - | - |
| 1778016511 | 30° C | 67% | 1015.6 hPa | 0 mm | 1.79 m/s, 193° | - | - |
* Rain latest hour (hover to see other rain measurements)
** Current wind speed in m/s (hover to see current wind gust speed)